STARLINK-11538, 62554

Orbit data source: Space-Track

STARLINK-11538, 62554 is a payload satellite owned by SpaceX/Seattle (US) in LEO that was launched on Fri, 10 Jan 2025 UTC via an FALCON 9 launch vehicle from the Air Force Eastern Test Range (AFETR). Payload-class satellites include a variety of spacecraft equipped with specific instruments for various scientific and technological missions. These include communications satellites like Starlink; space stations such as the ISS; scientific satellites like the Hubble; Earth observation satellites from companies like Planet Labs, Umbra, and HawkEye 360; GPS; miniature CubeSats for education and research; and military/defense satellites.

Loading next visibility...
Identifier
62554, 2025-006A
Orbit
LEO
Country
Flag of USUS
Related business
Manufacturer
SpaceX/Seattle
Mission
Operational Commercial Communications
Bus & Motor
STARLINK V2MD, Unknown motor
Mass
960 kg wet, ~910 kg dry
Launch date (UTC)
2025-01-10 (1 year ago)
Launch vehicle
FALCON 9
Launch site
Air Force Eastern Test Range (AFETR)
Object type
Payload
Rocket body
Debris
Shape & HBR
Box + 2 Pan, 18.1 m
Radar Cross Section
36.964 m², Large (>1 m²)

Expand to show TLE details & history
Last TLE update: 1 day ago

TLE from 1 day ago
0 STARLINK-11538
1 62554U 25006A   26170.59575368  .00109060  00000-0  84134-3 0  9998
2 62554  42.9985 245.2792 0001428 275.1561  84.9143 15.70867745 82632
Epoch: 2026-06-19T14:17Z
TLE epoch observation values (Epoch: 2026-06-19T14:17:53.117Z)
Latitude
-0.00008°
Longitude
122.98532°
Altitude
356.102 km
Speed
7.697 km/s
True Right ascension
16h 21m 06s
True Declination
0° 00' 00"
Sunlit
Object was in full shadow at epoch
Visualization orbit readout
Latitude
Unknown
Longitude
Unknown
Altitude
Unknown
Speed
Unknown
Apparent Right ascension
Unknown
Apparent Declination
Unknown
Sunlit
N/A
Visualization observer readout
Local Sidereal Time
08:41:36
Azimuth
Unknown
Elevation
Unknown
Doppler factor
Unknown
Orbital elements
Apogee altitude
359.36 km
Perigee altitude
357.436 km
Semi-major axis
6,736.535 km
Eccentricity
0.00014
Inclination
42.9985°
RAAN
245.2792°
Arg. of periapsis
275.1561°
True anomaly
84.9306°
Mean anomaly
84.9143°
Eccentric anomaly
84.92245°
Mean motion
3.92544 °/min
Orbital period
91.71 mins
BSTAR
0.00084134
Loading maneuver chart data...
Computing Atmospheric mass density...
Loading historical data...
Loading historical data...
Loading historical data...
Loading historical data...
Loading historical data...
Loading historical data...
Loading historical data...

Documentation

Showing up to 5 results
|